| time (UTC) | temp F | wind direction | speed MPH | gust MPH | rain 1hr in | rain 24hr in | rain mn in | humidity % | barometer mb |
| 20260506191547 | 55 | 45 | 0.0 | 2.0 | 0.00 | 0.11 | 0.11 | 90 | 1013.8 |
| 20260506190546 | 55 | 81 | 2.0 | 4.0 | 0.01 | 0.11 | 0.11 | 90 | 1013.4 |
| 20260506185537 | 55 | 47 | 1.0 | 4.0 | 0.01 | 0.11 | 0.11 | 90 | 1013.2 |
| 20260506184534 | 55 | 84 | 1.0 | 4.0 | 0.02 | 0.11 | 0.11 | 90 | 1012.9 |
| 20260506183532 | 55 | 82 | 2.0 | 4.0 | 0.05 | 0.11 | 0.11 | 89 | 1012.8 |
| 20260506182524 | 55 | 83 | 0.0 | 2.0 | 0.07 | 0.11 | 0.11 | 90 | 1012.7 |
| 20260506181521 | 55 | 146 | 0.0 | 2.0 | 0.11 | 0.11 | 0.11 | 90 | 1012.8 |
| 20260506180542 | 56 | 0.0 | 0.0 | 0.09 | 0.09 | 0.09 | 90 | 1012.8 | |
| 20260506175534 | 56 | 68 | 0.0 | 2.0 | 0.09 | 0.09 | 0.09 | 90 | 1012.7 |
| 20260506174531 | 56 | 161 | 1.0 | 4.0 | 0.08 | 0.08 | 0.08 | 90 | 1012.5 |
| 20260506173523 | 57 | 351 | 1.0 | 2.0 | 0.06 | 0.06 | 0.06 | 88 | 1012.7 |
| 20260506172520 | 57 | 0 | 0.0 | 4.0 | 0.04 | 0.04 | 0.04 | 86 | 1012.8 |
| 20260506171614 | 58 | 294 | 0.0 | 2.0 | 0.00 | 0.00 | 0.00 | 85 | 1012.8 |
| 20260506170609 | 58 | 53 | 0.0 | 4.0 | 0.00 | 0.00 | 0.00 | 84 | 1012.8 |
| 20260506165606 | 58 | 113 | 0.0 | 2.0 | 0.00 | 0.00 | 0.00 | 84 | 1012.6 |
| 20260506164558 | 59 | 281 | 0.0 | 2.0 | 0.00 | 0.00 | 0.00 | 83 | 1012.4 |
| 20260506163555 | 59 | 356 | 2.0 | 4.0 | 0.00 | 0.00 | 0.00 | 81 | 1012.4 |
| 20260506162544 | 60 | 25 | 1.0 | 2.0 | 0.00 | 0.00 | 0.00 | 80 | 1012.4 |
| 20260506161536 | 61 | 341 | 1.0 | 2.0 | 0.00 | 0.00 | 0.00 | 78 | 1012.3 |
| 20260506160524 | 61 | 218 | 1.0 | 2.0 | 0.00 | 0.00 | 0.00 | 78 | 1012.1 |
| 20260506155520 | 61 | 309 | 1.0 | 4.0 | 0.00 | 0.00 | 0.00 | 76 | 1012.2 |
| 20260506154611 | 62 | 19 | 1.0 | 2.0 | 0.00 | 0.00 | 0.00 | 76 | 1012.1 |
| 20260506153610 | 63 | 106 | 1.0 | 6.0 | 0.00 | 0.00 | 0.00 | 75 | 1012.0 |
| 20260506152600 | 64 | 303 | 1.0 | 4.0 | 0.00 | 0.00 | 0.00 | 74 | 1012.1 |
| 20260506151557 | 64 | 344 | 2.0 | 4.0 | 0.00 | 0.00 | 0.00 | 74 | 1012.1 |
| 20260506150554 | 64 | 13 | 1.0 | 4.0 | 0.00 | 0.00 | 0.00 | 73 | 1012.0 |
| 20260506145546 | 63 | 310 | 1.0 | 4.0 | 0.00 | 0.00 | 0.00 | 74 | 1012.1 |
| 20260506144543 | 63 | 19 | 1.0 | 4.0 | 0.00 | 0.00 | 0.00 | 74 | 1012.2 |
| 20260506143056 | 65 | 209 | 1.0 | 4.0 | 0.00 | 0.00 | 0.00 | 73 | 1012.3 |
| 20260506142046 | 64 | 331 | 2.0 | 4.0 | 0.00 | 0.00 | 0.00 | 74 | 1012.3 |
| 20260506141043 | 64 | 0 | 1.0 | 2.0 | 0.00 | 0.00 | 0.00 | 71 | 1012.5 |